Location: Bennemühlen
(52.5740°N, 9.7135°E)
Time: 18:50:25
(UTC+00:00)

Daily predictions for brighter satellites

Satellite Brightness Start Highest point End
(mag) Time Altitude Azimuth Time Altitude Azimuth Time Altitude Azimuth
Nadezhda 1 Rocket 4.1 19:51:18 10° S 19:57:17 63° E 20:03:23 10° NNE
Cosmos 2154 Rocket 4.2 19:51:05 10° NNW 19:57:18 81° W 20:03:30 10° S
Cosmos 2341 Rocket 4.5 19:53:41 10° N 19:59:44 47° ENE 20:05:41 10° SE
Cosmos 2184 Rocket 4.4 19:54:05 10° NNW 20:00:17 69° W 20:06:32 10° S
SeaSat 1 3.5 19:58:11 10° ESE 20:02:37 35° NE 20:07:04 10° NNW
Cosmos 2082 Rocket 4.1 20:02:15 10° ESE 20:03:38 11° E 20:04:59 10° E
Cosmos 1933 3.2 20:00:10 10° S 20:04:01 73° E 20:07:53 10° NNE
Okean O Rocket 2.2 19:59:53 10° S 20:04:10 57° WSW 20:08:28 10° NNW
Cosmos 2221 4.4 20:02:02 10° ESE 20:04:19 15° E 20:06:37 10° NE
Iridium 4 Rocket 3.6 19:59:54 10° N 20:04:58 88° W 20:10:27 10° S
SPOT 3 Rocket 3.9 20:03:38 10° SE 20:08:37 53° ENE 20:13:36 10° N
Okean-O 2.9 20:05:18 10° S 20:09:40 69° WSW 20:14:04 10° NNW
ERS-1 Rocket 3.3 20:06:45 10° S 20:11:45 69° WSW 20:16:47 10° NNW
Cosmos 1743 2.9 20:13:27 10° NNW 20:16:50 58° W 20:20:11 10° S
ISS -3.7 20:16:23 10° W 20:19:43 64° SSW 20:23:03 10° ESE
BREEZE-M R/B 4.5 19:58:50 10° W 20:22:04 71° SSW 20:26:57 10° ESE
Lacrosse 4 Rocket 3.6 20:18:52 10° WSW 20:22:23 30° NW 20:25:58 10° NNE
Spot 2 Rocket 3.5 20:18:28 10° SSE 20:23:30 86° WSW 20:28:34 10° NNW
ARIANE 6 FM1 Upper Stage 2.6 20:20:22 10° SSW 20:24:18 57° SE 20:28:17 10° NE
NOSS 3-1 (C) 3.5 20:20:08 10° S 20:24:30 36° ESE 20:29:43 10° NE
Cosmos 2333 Rocket 4.4 20:21:56 10° NNW 20:25:59 19° NNE 20:30:00 10° ENE
IKONOS-2 4.4 20:22:31 10° NNE 20:26:38 65° ESE 20:30:43 10° S
CZ-4 R/B 4.5 20:29:42 10° W 20:30:21 10° W 20:31:01 10° WNW
Cosmos 1833 Rocket 2.7 20:25:14 10° SSW 20:30:45 60° ESE 20:36:20 10° NE
Cosmos 1356 Rocket 4.0 20:28:44 10° SSE 20:32:33 38° E 20:36:22 10° NNE
Cosmos 1733 2.6 20:30:04 10° NNW 20:33:10 85° W 20:36:07 11° S
Cosmos 1821 Rocket 4.5 20:29:15 10° N 20:35:09 46° ENE 20:40:29 12° SE
SL-24 R/B 4.5 20:31:00 10° SSE 20:35:09 89° WSW 20:39:22 10° NNW
Cosmos 158 Rocket 4.0 20:34:21 10° SSW 20:39:40 84° ESE 20:45:05 10° NNE
USA 245 4.1 20:35:43 10° S 20:39:54 64° W 20:45:08 10° NNW
Cosmos 2218 Rocket 4.1 20:33:38 10° N 20:40:02 71° ENE 20:46:01 11° SSE
Cosmos 2058 Rocket 3.8 20:40:17 10° SSW 20:44:41 57° WNW 20:49:06 10° N
Helios 1A 4.1 20:43:05 10° N 20:46:57 44° WNW 20:50:47 10° SW
Cosmos 1805 3.9 20:45:14 10° N 20:48:25 33° ENE 20:50:42 16° SE
SWARM A 4.5 20:48:25 15° SSE 20:51:05 55° E 20:54:25 10° N
PSLV R/B 3.6 20:49:41 13° S 20:52:30 61° WSW 20:55:44 10° NNW
Cosmos 1980 Rocket 2.2 20:47:09 10° NNW 20:52:46 79° ENE 20:57:27 15° SE
Cosmos 1812 Rocket 3.7 20:48:57 12° S 20:52:48 54° E 20:57:01 10° NNE
NOSS 3-1 (A) 3.9 20:50:27 11° S 20:54:16 28° ESE 20:59:01 10° ENE
Terra 3.3 20:51:45 10° SSW 20:55:58 33° W 21:00:14 10° NNW
USA 234 3.2 20:49:38 10° ENE 20:56:10 67° SE 21:02:40 10° SW
ATLAS CENTAUR R/B 1.2 20:52:29 10° SW 20:56:12 80° NW 21:00:03 10° NE
Cosmos 1315 Rocket 3.1 20:55:12 15° SSE 20:58:12 47° E 21:01:58 10° NNE
BREEZE-M DEB (TANK) 4.4 20:38:43 10° W 20:59:35 74° S 21:04:42 10° E
Meteor 1-26 Rocket 4.4 20:55:30 10° SSW 21:01:23 88° W 21:07:27 10° NNE
Cosmos 2208 Rocket 4.1 20:56:07 10° S 21:01:23 59° ESE 21:06:38 10° NNE
SL-16 R/B 3.5 20:58:35 10° NNW 21:03:43 33° NE 21:08:49 10° ESE
Cosmos 2181 Rocket 4.1 20:58:42 11° S 21:04:46 66° E 21:11:07 10° NNE
DELTA 2 DEB (DPAF) 4.4 21:02:56 10° NNE 21:06:39 38° E 21:09:02 19° SSE
Meteor 1-11 Rocket 4.2 21:01:30 10° N 21:06:51 46° ENE 21:10:57 17° SE
Genesis I 4.5 21:05:02 10° NNW 21:07:16 21° NNE 21:09:29 10° E
BlueWalker 3 2.9 21:05:13 10° W 21:08:26 30° SW 21:10:12 19° SSE
SL-24 R/B 4.2 21:04:47 10° NNE 21:09:04 62° ESE 21:12:50 14° S
Meteor 2-10 4.3 21:03:31 10° NNW 21:09:15 80° W 21:13:58 15° S
Cosmos 2322 Rocket 3.8 21:07:42 10° NNW 21:12:31 27° NE 21:17:17 10° E
Cosmos 1975 4.4 21:10:36 10° NNE 21:13:29 21° ENE 21:15:35 14° ESE
Cosmos 2366 rocket 4.3 21:08:55 10° NNW 21:15:14 67° W 21:21:09 12° S
SL-24 DEB 4.3 21:14:17 14° S 21:18:08 71° W 21:22:42 10° N
CZ-4C R/B 4.2 21:15:11 10° NE 21:18:21 27° E 21:19:42 21° SE
Meteor 1-14 Rocket 4.2 21:13:46 10° NNW 21:19:23 88° W 21:23:50 17° S
Ariane Rocket 3.8 21:16:59 11° S 21:21:35 46° W 21:26:29 10° NNW
Cosmos 2298 Rocket 4.3 21:18:47 10° NNW 21:24:05 64° WSW 21:27:57 18° S
Cosmos 1697 Rocket 3.9 21:19:36 10° NW 21:24:40 34° WSW 21:29:17 12° SSW
Cosmos 1238 Rocket 2.4 21:22:13 17° S 21:24:58 87° W 21:28:15 10° N
Lacrosse 5 rocket 3.0 21:23:09 10° W 21:25:17 15° SW 21:26:35 13° SSW
Nadezhda 3 Rocket 4.3 21:21:58 18° SSE 21:26:25 51° E 21:32:26 10° NNE
ARIANE 5 R/B 3.6 21:23:51 17° ESE 21:26:39 36° ENE 21:30:40 10° N
Cosmos 1570 Rocket 4.3 21:22:39 10° SSW 21:27:53 72° WNW 21:33:12 10° NNE
Cosmos 1766 4.4 21:26:59 10° N 21:29:59 26° ENE 21:31:35 19° ESE
Cosmos 2278 4.5 21:24:40 10° NNW 21:30:06 45° NE 21:34:48 14° ESE
CENTAUR R/B 3.9 21:24:21 10° NW 21:31:44 51° NNE 21:40:29 10° ESE
Cosmos 2360 Rocket 3.7 21:27:22 10° NNW 21:32:18 30° NE 21:37:13 10° ESE
ATLAS 3B R/B 3.9 21:30:07 18° SSE 21:33:53 28° ESE 21:40:09 10° ENE
Cosmos 1536 2.8 21:31:29 10° NNW 21:35:18 72° W 21:37:32 23° S
Meteor 2-6 Rocket 4.3 21:30:19 11° SSW 21:35:58 86° WNW 21:41:43 10° NNE
Cosmos 2369 3.7 21:31:59 10° NNW 21:37:41 79° WSW 21:41:29 22° SSE
SeaSat 1 2.9 21:36:40 20° S 21:39:52 53° WSW 21:44:42 10° NW
Cosmos 405 Rocket 2.8 21:36:49 10° N 21:40:12 50° ENE 21:41:39 28° SE
Cosmos 2221 2.6 21:37:30 15° SSW 21:40:53 71° WNW 21:45:04 10° N
CZ-2C R/B 4.5 21:37:48 10° NNE 21:41:49 33° E 21:43:42 23° SE
Okean 1 3.5 21:42:37 16° SSW 21:45:26 59° WNW 21:49:05 10° N
Cosmos 2082 Rocket 2.3 21:42:05 16° S 21:46:29 59° ESE 21:52:01 10° NE
Cosmos 1674 1.1 21:48:35 71° SSW 21:48:45 83° W 21:50:58 10° N
ISS -2.4 21:53:21 10° W 21:56:08 24° SSW 21:56:12 24° SSW
Okean 3 Rocket 3.7 21:52:28 10° N 21:56:52 64° ENE 21:59:09 27° SSE
Cosmos 773 Rocket 4.2 21:52:05 10° SSW 21:57:12 71° WNW 22:02:21 10° NNE
COBE Rocket 4.0 21:52:12 10° NNE 21:57:20 84° ESE 22:00:55 20° S
Landsat 5 4.3 21:54:45 10° NNE 21:58:36 35° E 22:00:10 26° SE
Meteor 1-10 Rocket 4.3 21:54:20 19° S 21:58:42 82° E 22:04:33 10° NNE
Cosmos 1766 Rocket 3.8 21:55:21 10° NNW 21:59:43 61° W 22:02:12 24° S
Cosmos 220 Rocket 4.1 21:57:20 14° SW 22:00:50 70° WNW 22:04:54 10° NNE
Cosmos 2084 Rocket 3.7 21:56:49 10° SW 22:01:05 70° NW 22:05:18 10° NE
COSMOS 2406 3.4 21:59:10 22° S 22:02:37 52° ESE 22:08:09 10° NE
ARIANE 6 FM1 Upper Stage 4.3 21:59:54 10° W 22:03:38 36° NNW 22:07:26 10° NE
Cosmos 1842 4.5 22:02:54 21° ESE 22:03:38 22° E 22:06:24 10° NE
USA 59 Rocket -0.3 22:10:24 38° SE 22:10:24 38° SE 22:13:10 10° ENE
Cosmos 2333 Rocket 2.7 22:05:56 10° NNW 22:11:36 55° NE 22:15:54 17° SE
MetOp-A 4.0 22:10:43 26° S 22:13:40 80° WSW 22:18:52 10° NNW
NOSS 3-1 (C) 3.8 22:09:57 10° WSW 22:14:56 57° NNW 22:21:09 10° NE
Cosmos 1833 Rocket 4.4 22:09:55 10° WSW 22:15:01 34° NW 22:20:10 10° NNE
Cosmos 1300 4.4 22:14:22 10° NNE 22:16:35 17° ENE 22:17:48 14° E
Cosmos 1151 Rocket 4.1 22:19:28 23° SE 22:20:56 30° E 22:24:38 10° NNE
NOSS 2-1 (E) 3.1 22:21:20 41° SE 22:21:27 41° SE 22:24:22 10° ENE
ALOS 2 2.8 22:19:44 28° SE 22:21:55 64° ENE 22:26:17 10° N
PKM 3.7 22:19:58 10° WSW 22:22:47 85° NNW 22:27:52 10° ENE
Meteor 2-13 Rocket 4.4 22:19:05 23° S 22:23:03 81° E 22:29:13 10° NNE
Cosmos 2219 Rocket 3.3 22:22:05 10° NNW 22:27:22 39° NE 22:32:37 10° ESE
ATLAS CENTAUR R/B 3.9 22:29:54 10° WNW 22:32:54 22° NNW 22:35:56 10° NNE
Meteor 2-4 Rocket 3.9 22:30:51 27° SSE 22:33:56 63° E 22:39:42 10° NNE
Meteor 1-27 Rocket 3.7 22:30:55 23° SSW 22:34:29 83° WNW 22:40:04 10° NNE
Cosmos 1980 Rocket 3.9 22:32:01 10° NW 22:36:08 21° WSW 22:39:12 14° SW
Sich 1 2.9 22:32:23 10° NNW 22:36:39 88° W 22:38:23 35° S
NOSS 2-1 (D) 2.6 22:36:14 47° SSW 22:36:58 69° SE 22:39:56 10° NE
USA 234 3.6 22:32:46 10° ENE 22:39:16 70° NNW 22:45:46 10° W
Genesis I 2.9 22:38:00 10° NW 22:40:24 42° WSW 22:40:24 42° WSW
NOSS 3-1 (A) 3.4 22:39:26 10° WSW 22:44:26 69° NW 22:50:40 10° NE
PSLV R/B 4.0 22:41:28 10° NNE 22:45:29 44° E 22:46:52 32° SSE
Cosmos 2056 Rocket 4.2 22:41:56 10° NNW 22:47:08 49° ENE 22:50:55 18° SE
SL-16 R/B 2.3 22:42:35 10° NW 22:48:12 63° WSW 22:51:04 29° S
Cosmos 1975 3.5 22:45:33 10° NNW 22:48:59 37° W 22:50:13 28° SW
Cosmos 1500 Rocket 3.5 22:47:23 10° NNW 22:51:46 76° W 22:53:33 35° S
Cosmos 1707 2.2 22:51:13 50° S 22:52:00 83° E 22:55:22 10° NNE
H-2A R/B 4.4 22:50:24 11° ESE 22:53:11 21° ENE 22:56:07 10° NNE
Cosmos 1538 Rocket 3.9 22:50:41 28° SSW 22:53:27 79° ESE 22:58:38 10° NNE
NOSS 2-1 (C) 2.6 22:55:39 35° SW 22:56:53 81° NW 22:59:52 10° NE
Cosmos 2322 Rocket 2.1 22:51:31 10° NNW 22:57:14 83° WSW 23:00:25 27° SSE
Cosmos 1633 Rocket 4.1 22:54:25 10° N 22:58:29 37° ENE 23:00:47 21° SE
Spot 4 4.3 22:56:43 29° SSW 22:58:52 50° W 23:03:31 10° NNW
Cosmos 1408 Rocket 3.9 22:56:23 10° NNW 23:00:37 52° W 23:02:20 31° SSW
COSMOS 2428 4.2 22:57:17 10° NNW 23:02:27 33° NE 23:07:37 10° ESE
ARIANE 5 R/B 3.8 23:01:14 23° SW 23:03:02 31° W 23:06:56 10° NNW
Cosmos 1766 4.5 23:01:27 10° NNW 23:04:20 25° W 23:05:17 22° WSW
Cosmos 1908 3.8 23:02:48 10° NNW 23:05:48 34° W 23:06:26 31° WSW
Cosmos 1470 2.9 23:02:56 10° NNW 23:06:24 50° W 23:07:19 39° SW
Meteor 2-10 Rocket 4.2 23:01:45 10° N 23:07:23 55° ENE 23:11:09 21° SE
Cosmos 1805 Rocket 3.9 23:03:27 10° NNW 23:07:49 56° W 23:09:35 33° SSW
Cosmos 1066 Rocket 4.3 23:04:55 29° S 23:07:52 73° E 23:13:38 10° NNE
Cosmos 2278 4.3 23:08:56 10° NW 23:14:13 42° WSW 23:16:39 27° SSW
GP-B 3.0 23:10:20 10° N 23:14:45 80° E 23:16:31 36° S
Exosat Rocket 3.9 23:11:21 10° NW 23:16:15 50° WSW 23:18:24 30° SSW
Cosmos 2360 Rocket 2.2 23:11:11 10° NW 23:16:48 72° WSW 23:19:47 28° SSE
Cosmos 2173 Rocket 4.3 23:11:21 10° N 23:17:42 64° ENE 23:21:47 23° SSE
Meteor 1-18 Rocket 4.3 23:14:33 28° S 23:17:47 89° E 23:23:42 10° NNE
Cosmos 1758 4.5 23:18:42 10° N 23:22:13 33° ENE 23:24:09 21° ESE
CENTAUR R/B 3.2 23:15:01 10° NW 23:23:06 77° SW 23:31:24 14° SE
Spot 1 4.2 23:19:12 10° NNE 23:23:26 69° WNW 23:25:33 30° SSW
ASTEX 1 3.4 23:18:47 10° N 23:23:45 80° E 23:26:06 32° S
ATLAS 3B R/B 2.9 23:17:16 15° SW 23:23:47 87° SE 23:31:43 10° NE
USA 229 DEB 3.5 23:20:46 25° SSW 23:24:33 68° SE 23:31:20 10° NE
USA 229 3.5 23:20:54 25° SSW 23:24:38 68° SE 23:31:25 10° NE
Cosmos 1328 Rocket 4.1 23:23:10 30° SE 23:24:49 45° E 23:28:57 10° NNE
Cosmos 1743 Rocket 4.0 23:21:45 10° NNW 23:26:04 50° W 23:27:46 32° SSW
GEOS 3 Rocket 3.9 23:22:25 10° ESE 23:27:27 67° NE 23:32:35 10° NW
Cosmos 2082 Rocket 3.6 23:25:48 10° WSW 23:30:54 34° NW 23:36:02 10° NNE
Cosmos 1842 4.3 23:36:29 23° WSW 23:37:48 30° WNW 23:40:56 10° N
Cosmos 1420 Rocket 4.3 23:35:58 10° NNW 23:41:07 51° WSW 23:43:26 30° SSW
Cosmos 2112 Rocket 4.2 23:41:11 30° S 23:43:41 61° ESE 23:48:50 10° NNE
Cosmos 1455 1.4 23:43:52 10° N 23:46:42 69° ENE 23:47:02 59° SE
COSMOS 2406 4.4 23:41:48 10° WSW 23:47:07 39° NW 23:52:28 10° NNE
Cosmos 2237 Rocket 3.9 23:42:41 10° NNW 23:47:43 32° NE 23:52:45 10° ESE
Cosmos 1300 3.1 23:47:09 10° NNW 23:50:03 33° W 23:50:26 32° WSW
SL-14 R/B 3.5 23:53:45 35° SSE 23:55:08 57° E 23:58:57 10° NNE
Cosmos 1953 4.3 23:54:08 10° NNE 23:57:00 21° ENE 23:59:50 10° ESE
